Simultaneous Nadir Overpasses (SNOs) Predictions

Prediction of SNOs between NOAA-19 and TERRA Satellite Orbit:

Table of predicted SNOs for the next 14.0 days since TLE Epoch: 3/12/2022
Index Date (NOAA-19) Time (NOAA-19) Lat,Lon (NOAA-19) SZA (NOAA-19 ) Date (TERRA) Time (TERRA) Lat,Lon (TERRA) SZA (TERRA ) Distance(km) Time Diff (sec)
1 03/14/2022 05:42:48 80.68, 129.98 84.70 03/14/2022 05:43:24 80.69, 129.86 84.71 2.28 36
2 03/14/2022 06:33:47 -80.68, -62.70 95.31 03/14/2022 06:32:51 -80.68, -62.56 95.32 2.67 56
3 03/16/2022 11:15:55 -80.75,-135.55 96.30 03/16/2022 11:17:08 -80.58,-134.71 96.35 24.39 73
4 03/16/2022 12:06:49 80.68, 33.94 83.83 03/16/2022 12:06:31 80.67, 33.92 83.81 1.21 18
5 03/18/2022 17:39:50 -80.68, 130.75 97.04 03/18/2022 17:40:11 -80.68, 130.61 97.04 2.48 21
6 03/18/2022 18:30:49 80.68, -61.78 82.97 03/18/2022 18:29:37 80.68, -61.74 82.95 1.03 72
7 03/20/2022 23:12:51 80.70,-132.77 82.09 03/20/2022 23:13:50 80.69,-132.73 82.11 0.75 59
8 03/21/2022 00:03:51 -80.68, 34.86 97.91 03/21/2022 00:03:17 -80.69, 34.90 97.91 1.17 34
9 03/23/2022 05:36:51 80.69, 131.45 81.23 03/23/2022 05:36:56 80.69, 131.48 81.23 0.55 5
10 03/25/2022 11:09:53 -80.70,-131.90 99.64 03/25/2022 11:10:35 -80.69,-131.96 99.63 1.18 42



Historial Predications of SNOs between NOAA-19 and TERRA
